Location: Unspecified
(47.8330°N, 0.0000°E)
Time: 23:48:54
(UTC+00:00)

VELOX 1 - Pass Details

Date: 27 August 2019
Orbit: 629 x 643 km, 98.2° (Epoch: 18 September)

Event Time Altitude Azimuth Distance (km) Brightness Sun altitude
Exits shadow 02:15:53 18° 307° (NW) 1,558 ? -24.8°
Drops below altitude 10° 02:17:26 10° 323° (NW) 2,024 ? -24.6°
Sets 02:19:58 0° 336° (NNW) 2,939 ? -24.4°
